Regional Weather Roundup
Issued by NWS

Home | Current Version | Previous Version | Graphics & Text | Print | Product List | Glossary Off
Versions: 1 2 3 4 5 6 7 8 9 10 11 12 13 14 15 16 17 18 19 20 21 22 23 24 25 26 27 28 29 30 31 32 33 34 35 36 37 38 39 40 41 42 43 44 45 46 47 48 49 50

000
ASUS43 KMPX 230810
RWRMN
WEATHER ROUNDUP FOR MINNESOTA
NATIONAL WEATHER SERVICE TWIN CITIES/CHANHASSEN MN
300 AM CDT SUN JUL 23 2017


NOTE: "FAIR" INDICATES FEW OR NO CLOUDS BELOW 12,000 FEET WITH NO
SIGNIFICANT WEATHER AND/OR OBSTRUCTIONS TO VISIBILITY. N/A MEANS
CURRENT SKY AND/OR WEATHER CONDITIONS ARE NOT AVAILABLE.

MNZ060>063-068>070-230900-
   Twin Cities Metro

CITY           SKY/WX    TMP DP  RH WIND       PRES   REMARKS
TWIN CITIES    MOCLDY    72  59  63 N6        29.83S
ST PAUL        PTCLDY    71  59  65 N5        29.83S
CRYSTAL        PTCLDY    68  56  65 NW7       29.82F
BLAINE         CLEAR     70  57  64 NW8       29.84S
LAKEVILLE      PTCLDY    66  66 100 CALM      29.84S
EDEN PRAIRIE   PTCLDY    71  60  68 N6        29.83S
SOUTH ST PAUL  PTCLDY    73  54  51 N6        29.83S
LAKE ELMO      FAIR      68  57  68 NW3       29.84S
$$
MNZ001>005-007-008-013>017-022>024-027-028-230900-
   Northwest Minnesota

CITY           SKY/WX    TMP DP  RH WIND       PRES   REMARKS
BEMIDJI        CLOUDY    61  58  91 NW8       29.87S
HALLOCK        CLOUDY    63  61  94 N9        29.91S
ROSEAU         CLOUDY    61  55  82 NW6       29.89R
WARROAD        CLOUDY    61  55  82 NW6       29.88S
THIEF RVR FALL CLOUDY    62  60  93 NW9       29.91S
CROOKSTON      CLOUDY    63  61  94 NW6       29.91S
FOSSTON        CLOUDY    59  57  94 NW9       29.90S
DETROIT LAKES  CLOUDY    61  59  94 NW13      29.92S
MOORHEAD       CLEAR     61  57  88 NW7       29.92S
PARK RAPIDS    MOCLDY    61  58  90 NW7       29.88F
MAHNOMEN       CLOUDY    60  58  94 NW9       29.90S
$$
MNZ006-009>011-018-025>026-230900-
   North Central Minnesota

CITY           SKY/WX    TMP DP  RH WIND       PRES   REMARKS
BAUDETTE       CLEAR     58  58 100 NW3       29.85F
FLAG ISLAND    PTCLDY    64  61  88 NE7       29.86S
INTL FALLS     MOCLDY    60  58  92 NE6       29.84R
WASKISH        CLOUDY    61  57  88 NW8       29.86S
BIG FORK       PTCLDY    55  54  94 CALM      29.85F
LONGVILLE      CLOUDY    61  57  88 CALM      29.86S
GRAND RAPIDS   CLOUDY    62  58  86 NW8       29.86F
CRANE LAKE     MOCLDY    57  57 100 CALM      29.85S FOG
ORR            CLOUDY    61  57  88 NW5       29.81S
COOK           CLOUDY    61  57  88 NW3       29.83S
WALKER         CLOUDY    59  57  91 W6        29.87F
$$
MNZ012-019>021-037-230900-
   Northeast Minnesota

CITY           SKY/WX    TMP DP  RH WIND       PRES   REMARKS
DULUTH         CLOUDY    53  53 100 CALM      29.84S
ELY            CLOUDY    59  57  94 CALM      29.83R
HIBBING        PTCLDY    59  58  96 NW7       29.83S
EVELETH        CLEAR     59  58  99 CALM      29.83F
DULUTH HARBOR  CLOUDY    57  55  94 NE6       29.84S
TWO HARBORS    CLOUDY    57  54  88 CALM      29.81F HAZE
SILVER BAY     CLOUDY    55  54  94 CALM      29.80F
GRAND MARAIS     N/A     57  55  93 CALM      29.82S
G MARAIS ARPRT CLOUDY    54  50  87 N5        29.84F
$$
MNZ029>031-032-039>041-046>048-054>057-064-230900-
   West Central Minnesota

CITY           SKY/WX    TMP DP  RH WIND       PRES   REMARKS
FERGUS FALLS   CLEAR     59  59 100 W3        29.91S
WHEATON        CLEAR     63  57  82 W7        29.94S
MORRIS         CLEAR     63  57  82 NW7       29.90S
ALEXANDRIA     CLEAR     64  58  80 NW8       29.91F
ELBOW LAKE     FAIR      62  59  91 W8        29.92S
WADENA         CLEAR     59  55  88 W5        29.89S
GLENWOOD       CLEAR     63  59  88 N5        29.91S
APPLETON       CLEAR     64  57  77 N5        29.90S
BENSON         CLEAR     61  59  94 N5        29.91F
ORTONVILLE     CLEAR     66  61  82 NW5       29.92S
MADISON        CLEAR     66  61  82 NW8       29.92S
WILLMAR        MOCLDY    66  63  88 CALM      29.90S
$$
MNZ033>034-036-042>043-049>051-058-059-230900-
   Central Minnesota

CITY           SKY/WX    TMP DP  RH WIND       PRES   REMARKS
ST CLOUD       PTCLDY    64  58  80 NW7       29.86S
SAUK CENTRE    FAIR      63  59  85 NW3       29.89F
PAYNESVILLE    CLEAR     66  60  80 NW3       29.89S
AITKIN         PTCLDY    59  55  88 CALM      29.85S
PINE RIVER     CLEAR     61  55  82 CALM      29.90F
BRAINERD       PTCLDY    64  57  78 NW6       29.86F
STAPLES        PTCLDY    57  55  94 W5        29.88F
LONG PRAIRIE   FAIR      61  55  82 W6        29.90S
LITTLE FALLS   CLEAR     63  54  72 CALM      29.87
LITCHFIELD     PTCLDY    70  63  78 NW6       29.88S
BUFFALO        MOCLDY    69  57  64 NW5       29.87S
MAPLE LAKE     CLOUDY    69  61  76 NW5       29.87S
HUTCHINSON     MOCLDY    69  64  86 NW7       29.88R
$$
MNZ037-044-045-052-053-230900-
   East Central Minnesota

CITY           SKY/WX    TMP DP  RH WIND       PRES   REMARKS
PRINCETON      CLEAR     64  57  77 W3        29.85S
MORA           CLEAR     64  55  72 NW8       29.85F
CAMBRIDGE      MOCLDY    70  55  60 NW5       29.82F
RUSH CITY      CLOUDY    65  57  75 CALM      29.83F
MOOSE LAKE     CLEAR     55  54  94 CALM      29.82S FOG
HINCKLEY       FAIR      64  57  77 NW5       29.83F
CLOQUET        FOG       55  54  94 CALM      29.84S VSB 1/4
MCGREGOR       MOCLDY    63  55  77 NW6       29.85S
$$
MNZ071>073-080-081-089-090-097-098-230900-
   Southwest Minnesota

CITY           SKY/WX    TMP DP  RH WIND       PRES   REMARKS
MONTEVIDEO     CLEAR     64  57  77 N7        29.90S
GRANITE FALLS  CLEAR     68  61  78 NW7       29.91S
CANBY          CLEAR     65  61  87 CALM      29.94S
MARSHALL       CLEAR     66  61  84 NW10      29.91S
REDWOOD FALLS  CLEAR     69  61  75 NW8       29.87R
OLIVIA         CLOUDY    68  63  83 N7        29.87S
PIPESTONE      CLEAR     68  59  73 N7        29.95S
WINDOM         CLEAR     66  61  82 W6        29.89S
WORTHINGTON    CLEAR     69  60  73 W10       29.91F
JACKSON        CLEAR     68  61  77 CALM      29.89F
SLAYTON        CLEAR     66  60  80 NW13      29.93R
$$
MNZ065>067-074>077-082>085-091>093-230900-
   South Central Minnesota

CITY           SKY/WX    TMP DP  RH WIND       PRES   REMARKS
MANKATO        PTCLDY    68  65  90 N6        29.85R
NEW ULM        CLEAR     70  64  83 CALM      29.85F
ST JAMES       CLEAR     68  66  94 SW5       29.86F
FAIRMONT       CLEAR     69  65  86 W6        29.87F
GLENCOE        MOCLDY    68  65  92 N3        29.85F
FARIBAULT      CLEAR     64  64 100 CALM      29.85S
OWATONNA       CLEAR     64  64 100 CALM      29.85R
WASECA         CLEAR     63  61  94 N5        29.87R
ALBERT LEA     CLEAR     70  68  94 SW5       29.85F
$$
MNZ078>079-086>088-094>096-230900-
   Southeast Minnesota

CITY           SKY/WX    TMP DP  RH WIND       PRES   REMARKS
ROCHESTER      CLEAR     65  64  97 W6        29.84F
RED WING       PTCLDY    64  63  94 CALM      29.82S
STANTON        PTCLDY    63  61  93 CALM      29.83S
DODGE CENTER   CLEAR     64  63  94 CALM      29.84F
WINONA         FOG       70  68  94 CALM      29.81F VSB 1/2
AUSTIN         CLEAR     66  64  94 S3        29.84F FOG
PRESTON        CLEAR     67  64  91 SW6       29.85F
$$
ABBREVIATIONS USED IN REMARKS
   TC - TEMPERATURES IN CELSIUS
  WCI - WIND CHILL INDEX
   HX - HEAT INDEX
  VSB - VISIBILITY
$$



USA.gov is the U.S. government's official web portal to all federal, state and local government web resources and services.